Siemreap, Cambodia

2:32 PM +07 on January 21, 2018 (GMT +0700)
Siem Reap

Weather History for VDSR - December, 2013

Change the Weather History Date:

Saturday, December 28, 2013

  Actual Average Record
Temperature  
Mean Temperature 68 °F -  
Max Temperature 78 °F - - ()
Min Temperature 59 °F - - ()
Cooling Degree Days 4    
Growing Degree Days 18 (Base 50)    
Moisture  
Dew Point 60 °F    
Average Humidity 69    
Maximum Humidity 100    
Minimum Humidity 47    
Precipitation  
Precipitation 0.00 in - - ()
Sea Level Pressure  
Sea Level Pressure 29.95 in    
Wind  
Wind Speed 3 mph ()    
Max Wind Speed 8 mph    
Max Gust Speed -    
Visibility 5.1 miles    
Events      
T = Trace of Precipitation, MM = Missing Value Source: Averaged Metar Reports

Daily Weather History Graph

Daily Weather History Graph

Search for Another Location

Airport or City:

Trip Planner

Search our weather history database for the weather conditions in past years. The results will help you decide how hot, cold, wet, or windy it might be!

Date:

Astronomy

Dec. 28, 2013 Rise Set
Actual Time 6:25 AM +07 5:46 PM +07
Civil Twilight 6:02 AM +07 6:09 PM +07
Nautical Twilight 5:36 AM +07 6:36 PM +07
Astronomical Twilight 5:09 AM +07 7:02 PM +07
Moon 1:54 AM +07 (12/28) 1:52 PM +07 (12/28)
Length of Visible Light 12h 06m
Length of Day
11h 20m
Waning Crescent, 24% of the Moon is Illuminated
Dec 28
Waning Crescent
Jan 1
New
Jan 8
First Quarter
Jan 16
Full
Jan 24
Last Quarter

Hourly Weather History & Observations

Time (+07) Temp. Dew Point Humidity Pressure Visibility Wind Dir Wind Speed Gust Speed Precip Events Conditions
12:00 AM 68.0 °F 57.2 °F 68% 29.95 in 5.0 mi North 6.9 mph - N/A   Unknown
12:30 AM 66.2 °F 59.0 °F 78% 29.95 in 5.0 mi North 3.5 mph - N/A   Unknown
1:00 AM 64.4 °F 59.0 °F 83% 29.92 in 5.0 mi North 4.6 mph - N/A   Unknown
7:00 AM 59.0 °F 59.0 °F 100% 29.98 in 5.0 mi Variable 1.2 mph - N/A   Scattered Clouds
7:30 AM 60.8 °F 59.0 °F 94% 29.98 in 5.0 mi Calm Calm - N/A   Scattered Clouds
8:00 AM 62.6 °F 59.0 °F 88% 30.01 in 5.0 mi Variable 1.2 mph - N/A   Scattered Clouds
8:30 AM 64.4 °F 59.0 °F 83% 30.01 in 5.0 mi Variable 1.2 mph - N/A   Scattered Clouds
9:00 AM 68.0 °F 59.0 °F 73% 30.01 in 5.0 mi Variable 1.2 mph - N/A   Scattered Clouds
9:30 AM 68.0 °F 59.0 °F 73% 30.01 in 5.0 mi Variable 1.2 mph - N/A   Scattered Clouds
10:00 AM 69.8 °F 60.8 °F 73% 30.01 in 5.0 mi Variable 2.3 mph - N/A   Scattered Clouds
10:30 AM 71.6 °F 59.0 °F 64% 30.01 in 5.0 mi Variable 1.2 mph - N/A   Scattered Clouds
11:00 AM 71.6 °F 59.0 °F 64% 30.01 in 5.0 mi Variable 3.5 mph - N/A   Scattered Clouds
11:30 AM 73.4 °F 60.8 °F 65% 30.01 in 5.0 mi NW 4.6 mph - N/A   Scattered Clouds
12:00 PM 73.4 °F 59.0 °F 61% 29.98 in 5.0 mi Variable 2.3 mph - N/A   Scattered Clouds
12:30 PM 75.2 °F 60.8 °F 61% 29.95 in 5.6 mi Variable 3.5 mph - N/A   Scattered Clouds
1:00 PM 77.0 °F 59.0 °F 54% 29.92 in 5.6 mi WSW 5.8 mph - N/A   Scattered Clouds
1:30 PM 75.2 °F 60.8 °F 61% 29.92 in 5.6 mi WSW 5.8 mph - N/A   Scattered Clouds
2:00 PM 77.0 °F 59.0 °F 54% 29.89 in 5.6 mi West 4.6 mph - N/A   Scattered Clouds
2:30 PM 78.8 °F 59.0 °F 51% 29.89 in 5.6 mi Variable 3.5 mph - N/A   Scattered Clouds
3:00 PM 78.8 °F 57.2 °F 47% 29.86 in 5.6 mi Variable 3.5 mph - N/A   Scattered Clouds
3:30 PM 78.8 °F 59.0 °F 51% 29.86 in 5.6 mi Variable 2.3 mph - N/A   Scattered Clouds
4:00 PM 78.8 °F 57.2 °F 47% 29.86 in 5.6 mi NNE 4.6 mph - N/A   Scattered Clouds
4:30 PM 77.0 °F 60.8 °F 57% 29.86 in 5.6 mi Variable 3.5 mph - N/A   Scattered Clouds
6:30 PM 73.4 °F 59.0 °F 61% 29.89 in 5.0 mi NE 3.5 mph - N/A   Unknown
7:00 PM 71.6 °F 60.8 °F 69% 29.92 in 5.0 mi NE 3.5 mph - N/A   Unknown
7:30 PM 71.6 °F 62.6 °F 73% 29.92 in 5.0 mi NNE 3.5 mph - N/A   Unknown
8:00 PM 69.8 °F 62.6 °F 78% 29.92 in 4.3 mi NNE 2.3 mph - N/A   Unknown
8:30 PM 69.8 °F 60.8 °F 73% 29.95 in 5.0 mi North 5.8 mph - N/A   Unknown
9:00 PM 69.8 °F 60.8 °F 73% 29.95 in 5.0 mi North 5.8 mph - N/A   Unknown
9:30 PM 69.8 °F 60.8 °F 73% 29.95 in 5.0 mi NNE 8.1 mph - N/A   Unknown
10:00 PM 68.0 °F 60.8 °F 78% 29.95 in 5.0 mi NNE 8.1 mph - N/A   Unknown
10:30 PM 68.0 °F 60.8 °F 78% 29.95 in 4.3 mi NNE 5.8 mph - N/A   Unknown
11:00 PM 66.2 °F 59.0 °F 78% 29.95 in 4.3 mi North 3.5 mph - N/A   Unknown
11:30 PM 66.2 °F 59.0 °F 78% 29.95 in 4.3 mi North 3.5 mph - N/A   Unknown